Simultaneous Nadir Overpasses (SNOs) Predictions

Prediction of SNOs between AURA and NPP Satellite Orbit:

Table of predicted SNOs for the next 14.0 days since TLE Epoch: 7/6/2018
Index Date (AURA) Time (AURA) Lat,Lon (AURA) SZA (AURA ) Date (NPP) Time (NPP) Lat,Lon (NPP) SZA (NPP ) Distance(km) Time Diff (sec)
1 07/09/2018 11:25:22 79.34, -95.60 70.91 07/09/2018 11:24:30 79.35, -95.46 70.92 3.06 52
2 07/09/2018 12:14:43 -79.58, 73.70 109.45 07/09/2018 12:15:08 -79.59, 73.84 109.50 2.99 25
3 07/12/2018 03:41:50 79.37, 20.47 71.23 07/12/2018 03:41:24 79.36, 20.45 71.25 0.60 26
4 07/12/2018 04:31:11 -79.61,-170.20 109.14 07/12/2018 04:32:02 -79.61,-170.21 109.17 0.41 51
5 07/14/2018 19:58:16 79.47, 137.05 71.47 07/14/2018 19:58:15 79.48, 137.17 71.45 2.56 1
6 07/14/2018 20:45:55 -81.84, -16.38 114.66 07/14/2018 20:47:08 -81.28, -16.17 114.93 61.93 73
7 07/17/2018 11:25:23 -79.28, 84.04 107.82 07/17/2018 11:24:30 -79.29, 84.09 107.79 1.30 53
8 07/17/2018 12:14:43 79.50,-106.90 71.88 07/17/2018 12:15:08 79.50,-106.93 71.87 0.53 25
9 07/20/2018 03:41:50 -79.34,-159.69 107.43 07/20/2018 03:41:23 -79.34,-159.73 107.40 1.12 27




NCC Satellite Simultaneous Nadir Overpasses (SNOs) Prediction Service
